FW9540 Weather Reports


Display with metric or nautical units.
time (UTC)temp
F
wind
direction
speed
MPH
gust
MPH
rain 1hr
in
rain 24hr
in
rain mn
in
humidity
%
barometer
mb
20260506195222 54 36 0.0 0.0 0.00 0.00 0.00 92 1009.0
20260506194708 54 36 0.0 0.0 0.00 0.00 0.00 92 1008.9
20260506194136 54 36 0.0 0.0 0.00 0.00 0.00 92 1008.9
20260506193648 55 36 0.0 1.0 0.00 0.00 0.00 92 1008.9
20260506192608 55 36 0.0 0.0 0.00 0.00 0.00 92 1008.8
20260506191439 55 36 0.0 0.0 0.00 0.00 0.00 91 1008.9
20260506190913 55 36 0.0 0.0 0.00 0.00 0.00 91 1008.9
20260506190505 55 36 0.0 0.0 0.00 0.00 0.00 91 1008.8
20260506185856 55 36 0.0 0.0 0.00 0.00 0.00 91 1008.8
20260506185340 55 36 0.0 2.0 0.00 0.00 0.00 91 1008.7
20260506184836 55 36 0.0 2.0 0.00 0.00 0.00 91 1008.6
20260506184334 56 36 0.0 1.0 0.00 0.00 0.00 91 1008.6
20260506183807 56 36 0.0 1.0 0.00 0.00 0.00 90 1008.5
20260506182737 56 36 0.0 0.0 0.00 0.00 0.00 90 1008.4
20260506182236 56 36 0.0 0.0 0.00 0.00 0.00 90 1008.4
20260506181705 56 36 0.0 1.0 0.00 0.00 0.00 90 1008.2
20260506181204 57 36 0.0 1.0 0.00 0.00 0.00 90 1008.2
20260506180637 57 36 0.0 1.0 0.00 0.00 0.00 89 1008.2
20260506180114 58 36 0.0 1.0 0.00 0.00 0.00 89 1008.2
20260506175543 58 36 0.0 0.0 0.00 0.00 0.00 88 1008.3
20260506175039 58 36 0.0 1.0 0.00 0.00 0.00 88 1008.2
20260506174514 59 36 0.0 0.0 0.00 0.00 0.00 88 1008.1
20260506173947 59 36 0.0 0.0 0.00 0.00 0.00 87 1008.1
20260506173418 59 36 0.0 0.0 0.00 0.00 0.00 87 1008.1
20260506172426 59 36 0.0 0.0 0.00 0.00 0.00 86 1007.9
20260506171913 59 36 0.0 1.0 0.00 0.00 0.00 86 1008.0
20260506171410 59 36 0.0 1.0 0.00 0.00 0.00 86 1007.9
20260506170859 59 36 0.0 1.0 0.00 0.00 0.00 86 1007.9
20260506170346 59 36 0.0 1.0 0.00 0.00 0.00 86 1007.8
20260506165845 59 36 0.0 1.0 0.00 0.00 0.00 87 1007.7
20260506165326 59 36 0.0 1.0 0.00 0.00 0.00 87 1007.7
20260506164836 59 36 0.0 0.0 0.00 0.00 0.00 88 1007.8
20260506164259 59 36 0.0 0.0 0.00 0.00 0.00 88 1007.7
20260506163730 59 36 0.0 0.0 0.00 0.00 0.00 88 1007.8
20260506163229 59 36 0.0 0.0 0.00 0.00 0.00 90 1007.8
20260506162700 58 36 0.0 0.0 0.00 0.00 0.00 89 1007.8
20260506162212 58 36 0.0 0.0 0.00 0.00 0.00 90 1007.9
20260506161644 58 36 0.0 0.0 0.00 0.00 0.00 90 1007.9
20260506161107 58 36 0.0 0.0 0.00 0.00 0.00 90 1008.0
20260506160540 58 36 0.0 0.0 0.00 0.00 0.00 90 1008.0
20260506160039 58 36 0.0 0.0 0.00 0.00 0.00 90 1007.8
20260506155510 58 36 0.0 0.0 0.00 0.00 0.00 90 1007.8
20260506154442 58 36 1.0 4.0 0.00 0.00 0.00 91 1007.6
20260506152854 57 36 1.0 3.0 0.00 0.00 0.00 91 1008.0
20260506151814 57 36 0.0 1.0 0.00 0.00 0.00 92 1008.0
20260506151305 57 36 0.0 1.0 0.00 0.00 0.00 92 1008.1
20260506150238 57 36 1.0 4.0 0.00 0.00 0.00 92 1008.1
20260506145710 57 36 1.0 4.0 0.00 0.00 0.00 91 1008.2
20260506145212 57 36 0.0 1.0 0.00 0.00 0.00 92 1008.3
20260506144705 57 36 0.0 2.0 0.00 0.00 0.00 92 1008.3
20260506144203 56 36 0.0 2.0 0.00 0.00 0.00 91 1008.2
20260506143653 56 36 0.0 0.0 0.00 0.00 0.00 91 1008.1
20260506143124 56 36 0.0 1.0 0.00 0.00 0.00 91 1008.1
20260506142536 56 36 0.0 1.0 0.00 0.00 0.00 91 1008.0
20260506141521 56 36 0.0 3.0 0.00 0.00 0.00 91 1007.9
20260506141007 56 36 0.0 3.0 0.00 0.00 0.00 91 1008.0
20260506140451 56 36 0.0 1.0 0.00 0.00 0.00 91 1008.1
20260506135936 56 36 0.0 2.0 0.00 0.00 0.00 91 1008.3
20260506134839 56 36 0.0 0.0 0.00 0.00 0.00 90 1008.2
20260506134338 57 36 0.0 1.0 0.00 0.00 0.00 90 1008.4
20260506132806 57 36 0.0 2.0 0.00 0.00 0.00 90 1008.4
20260506132317 58 35 0.0 2.0 0.00 0.00 0.00 90 1008.5
20260506131740 58 35 0.0 0.0 0.00 0.00 0.00 89 1008.4
20260506131220 58 35 0.0 0.0 0.00 0.00 0.00 89 1008.3
20260506130703 58 35 0.0 0.0 0.00 0.00 0.00 89 1008.3
20260506130201 58 35 0.0 0.0 0.00 0.00 0.00 88 1008.4
20260506125112 58 36 0.0 0.0 0.00 0.00 0.00 87 1008.5
20260506124610 58 36 0.0 0.0 0.00 0.00 0.00 85 1008.4
20260506124040 58 36 0.0 0.0 0.00 0.00 0.00 85 1008.5
20260506123014 59 36 0.0 1.0 0.00 0.00 0.00 85 1008.4
20260506122445 59 36 0.0 3.0 0.00 0.00 0.00 86 1008.3
20260506121942 59 36 0.0 3.0 0.00 0.00 0.00 85 1008.4
20260506120433 59 36 0.0 2.0 0.00 0.00 0.00 87 1008.4
20260506115933 59 36 0.0 2.0 0.00 0.00 0.00 87 1008.4
20260506115412 59 36 0.0 4.0 0.00 0.00 0.00 86 1008.6
20260506114842 59 30 0.0 4.0 0.00 0.00 0.00 87 1008.6
20260506113817 58 29 0.0 3.0 0.00 0.00 0.00 87 1008.8
20260506113248 58 29 0.0 4.0 0.00 0.00 0.00 88 1008.8
20260506112720 58 86 0.0 4.0 0.00 0.00 0.00 88 1008.8
20260506112219 58 50 0.0 2.0 0.00 0.00 0.00 89 1008.9
20260506111651 58 50 0.0 2.0 0.00 0.00 0.00 89 1008.9
20260506111151 58 36 1.0 3.0 0.00 0.00 0.00 89 1009.0
20260506110627 58 46 1.0 4.0 0.00 0.00 0.00 90 1009.0
20260506105607 57 199 0.0 0.0 0.00 0.00 0.00 91 1009.2
20260506105035 57 199 0.0 0.0 0.00 0.00 0.00 91 1009.3
20260506104506 57 199 0.0 0.0 0.00 0.00 0.00 91 1009.4
20260506104007 57 199 0.0 0.0 0.00 0.00 0.00 91 1009.4
20260506103443 57 199 0.0 1.0 0.00 0.00 0.00 91 1009.4
20260506102921 57 199 0.0 1.0 0.00 0.00 0.00 91 1009.4
20260506102417 57 195 0.0 0.0 0.00 0.00 0.00 91 1009.5
20260506101851 57 195 0.0 0.0 0.00 0.00 0.00 91 1009.5
20260506101348 56 195 0.0 0.0 0.00 0.00 0.00 91 1009.5
20260506100850 56 195 0.0 1.0 0.00 0.00 0.00 91 1009.4
20260506095843 56 196 0.0 0.0 0.00 0.00 0.00 92 1009.4
20260506095323 56 196 0.0 0.0 0.00 0.00 0.00 92 1009.4
20260506094823 56 196 0.0 0.0 0.00 0.00 0.00 92 1009.4
20260506093730 56 196 0.0 3.0 0.00 0.00 0.00 92 1009.4
20260506092703 56 197 0.0 3.0 0.00 0.00 0.00 93 1009.4
20260506092140 56 201 1.0 5.0 0.00 0.00 0.00 93 1009.4
20260506091639 55 201 1.0 5.0 0.00 0.00 0.00 93 1009.4
20260506091116 55 196 0.0 3.0 0.00 0.00 0.00 93 1009.4
20260506090616 55 184 0.0 3.0 0.00 0.00 0.00 93 1009.4
20260506090052 55 171 0.0 1.0 0.00 0.00 0.00 93 1009.4
20260506085527 55 171 0.0 4.0 0.00 0.00 0.00 93 1009.4
20260506085000 55 171 0.0 4.0 0.00 0.00 0.00 93 1009.3
20260506084500 55 168 0.0 4.0 0.00 0.00 0.00 93 1009.3
20260506083935 55 168 0.0 4.0 0.00 0.00 0.00 93 1009.3
20260506082916 55 168 0.0 3.0 0.00 0.00 0.00 93 1009.3
20260506081844 55 167 0.0 3.0 0.00 0.00 0.00 93 1009.1
20260506081344 54 167 0.0 3.0 0.00 0.00 0.00 93 1009.1
20260506080843 54 167 0.0 3.0 0.00 0.00 0.00 93 1009.1
20260506080338 54 167 0.0 1.0 0.00 0.00 0.00 93 1009.1
20260506073219 54 167 0.0 1.0 0.00 0.00 0.00 93 1009.2
20260506072656 54 182 0.0 1.0 0.00 0.00 0.00 93 1009.2
20260506071637 54 187 0.0 1.0 0.00 0.00 0.00 93 1009.4
20260506071137 54 187 0.0 0.0 0.00 0.00 0.00 93 1009.4
20260506070635 54 187 0.0 3.0 0.00 0.00 0.00 93 1009.5
20260506070132 54 187 1.0 3.0 0.00 0.00 0.00 93 1009.6
20260506062433 54 170 0.0 4.0 0.00 0.00 0.00 93 1009.2
20260506061431 54 170 0.0 2.0 0.00 0.00 0.00 93 1009.4
20260506060911 54 170 0.0 0.0 0.00 0.00 0.00 93 1009.4
20260506060354 54 170 0.0 0.0 0.00 0.00 0.00 93 1009.3
20260506051134 54 170 0.0 2.0 0.00 0.00 0.00 94 1009.4
20260506050627 54 170 0.0 0.0 0.00 0.00 0.00 94 1009.4
20260506050115 54 170 0.0 0.0 0.00 0.00 0.00 94 1009.2
20260506044550 54 170 0.0 0.0 0.00 0.00 0.00 94 1009.3
20260506044047 54 170 0.0 0.0 0.00 0.00 0.00 94 1009.3
20260506043020 54 170 0.0 0.0 0.00 0.00 0.00 94 1009.5
20260506041956 54 170 0.0 0.0 0.00 0.00 0.00 94 1009.5
20260506040431 54 170 0.0 0.0 0.00 0.00 0.00 94 1009.7
20260506035908 54 170 0.0 0.0 0.00 0.00 0.00 94 1009.7
20260506034340 54 170 0.0 0.0 0.00 0.00 0.00 94 1009.8
20260506033837 54 170 0.0 0.0 0.00 0.00 0.00 94 1009.9
20260506033337 54 170 0.0 0.0 0.00 0.00 0.00 94 1009.9
20260506031808 54 170 0.0 0.0 0.00 0.00 0.00 94 1010.0
20260506031308 54 170 0.0 0.0 0.00 0.00 0.00 94 1010.0
20260506030805 54 170 0.0 0.0 0.00 0.00 0.00 93 1010.1
20260506030305 54 170 0.0 0.0 0.00 0.00 0.00 93 1009.9
20260506025752 54 170 0.0 0.0 0.00 0.00 0.00 93 1010.1
20260506025250 54 170 0.0 0.0 0.00 0.00 0.00 94 1010.1
20260506024753 54 170 0.0 0.0 0.00 0.00 0.00 94 1010.3
20260506024237 54 170 0.0 0.0 0.00 0.00 0.00 94 1010.3
20260506023737 54 170 0.0 0.0 0.00 0.00 0.00 94 1010.1
20260506023215 54 170 0.0 1.0 0.00 0.00 0.00 94 1010.1
20260506022644 54 170 0.0 1.0 0.00 0.00 0.00 94 1010.1
20260506022124 54 170 0.0 1.0 0.00 0.00 0.00 94 1010.1
20260506021604 54 170 0.0 1.0 0.00 0.00 0.00 94 1010.3
20260506021055 54 170 0.0 1.0 0.00 0.00 0.00 94 1010.3
20260506020555 54 170 0.0 1.0 0.00 0.00 0.00 94 1010.5
20260506020033 54 170 0.0 0.0 0.00 0.00 0.00 94 1010.4
20260506015522 54 170 0.0 0.0 0.00 0.00 0.00 94 1010.5
20260506014504 54 170 0.0 0.0 0.00 0.00 0.00 94 1010.6
20260506014001 54 170 0.0 0.0 0.00 0.00 0.00 94 1010.5
20260506013447 54 170 0.0 0.0 0.00 0.00 0.00 94 1010.4
20260506012932 54 170 0.0 0.0 0.00 0.00 0.00 94 1010.5
20260506010833 54 170 0.0 0.0 0.00 0.00 0.00 93 1010.5
20260506010313 54 170 0.0 0.0 0.00 0.00 0.00 93 1010.5
20260506005815 54 170 0.0 0.0 0.00 0.00 0.00 93 1010.5
20260506005313 54 170 0.0 0.0 0.00 0.00 0.00 93 1010.4
20260506004742 54 170 0.0 0.0 0.00 0.00 0.00 93 1010.4
20260506004226 54 170 0.0 0.0 0.00 0.00 0.00 93 1010.4
20260506003726 54 170 0.0 0.0 0.00 0.00 0.00 93 1010.4
20260506002719 54 170 0.0 0.0 0.00 0.00 0.00 93 1010.5
20260506002216 54 170 0.0 0.0 0.00 0.00 0.00 93 1010.5
20260506001716 54 170 0.0 0.0 0.00 0.00 0.00 93 1010.6
20260506001213 54 170 0.0 0.0 0.00 0.00 0.00 93 1010.6
20260506000655 54 170 0.0 0.0 0.00 0.00 0.00 93 1010.7
20260506000149 54 170 0.0 1.0 0.00 0.00 0.00 93 1010.7
20260505235631 54 170 0.0 2.0 0.00 0.00 0.00 93 1010.7
20260505235108 54 170 0.0 2.0 0.00 0.00 0.00 93 1010.6
20260505234102 54 170 0.0 0.0 0.00 0.00 0.00 93 1010.7
20260505233014 54 170 0.0 1.0 0.00 0.00 0.00 93 1010.8
20260505232512 54 170 0.0 1.0 0.00 0.00 0.00 93 1010.9
20260505231952 54 170 0.0 0.0 0.00 0.00 0.00 93 1010.9
20260505231437 54 170 0.0 1.0 0.00 0.00 0.00 93 1011.0
20260505230938 54 170 0.0 1.0 0.00 0.00 0.00 93 1011.0
20260505230436 54 170 0.0 0.0 0.00 0.00 0.00 93 1011.0
20260505225935 54 170 0.0 0.0 0.00 0.00 0.00 93 1011.0
20260505225433 54 170 0.0 1.0 0.00 0.00 0.00 93 1011.0
20260505223913 54 170 0.0 1.0 0.00 0.00 0.00 92 1011.1
20260505223418 54 170 0.0 1.0 0.00 0.00 0.00 92 1011.0
20260505222848 54 170 0.0 0.0 0.00 0.00 0.00 93 1011.0
20260505221822 55 170 0.0 0.0 0.00 0.00 0.00 93 1011.0
20260505221324 55 170 0.0 0.0 0.00 0.00 0.00 93 1011.1
20260505220755 55 170 0.0 0.0 0.00 0.00 0.00 93 1011.1
20260505220233 55 170 0.0 0.0 0.00 0.00 0.00 93 1011.2
20260505215706 55 170 0.0 0.0 0.00 0.00 0.00 93 1011.2
20260505215140 55 170 0.0 0.0 0.00 0.00 0.00 93 1011.1
20260505214613 55 170 0.0 1.0 0.00 0.00 0.00 93 1011.2
20260505214109 55 170 0.0 1.0 0.00 0.00 0.00 93 1011.2
20260505213608 55 170 0.0 0.0 0.00 0.00 0.00 93 1011.3
20260505213042 55 170 0.0 0.0 0.00 0.00 0.00 92 1011.3
20260505212544 55 170 0.0 0.0 0.00 0.00 0.00 92 1011.4
20260505212019 55 170 0.0 0.0 0.00 0.00 0.00 92 1011.4
20260505211518 55 170 0.0 0.0 0.00 0.00 0.00 92 1011.3
20260505211016 55 170 0.0 0.0 0.00 0.00 0.00 92 1011.4
20260505210518 55 170 0.0 0.0 0.00 0.00 0.00 92 1011.5
20260505205426 55 170 0.0 0.0 0.00 0.00 0.00 92 1011.5
20260505204859 55 170 0.0 0.0 0.00 0.00 0.00 92 1011.5
20260505204336 55 170 0.0 0.0 0.00 0.00 0.00 92 1011.5
20260505203826 55 170 0.0 0.0 0.00 0.00 0.00 92 1011.5
20260505203322 55 170 0.0 1.0 0.00 0.00 0.00 92 1011.5
20260505202806 55 170 0.0 1.0 0.00 0.00 0.00 92 1011.6
20260505202248 55 170 0.0 2.0 0.00 0.00 0.00 92 1011.6
20260505201751 55 170 0.0 1.0 0.00 0.00 0.00 92 1011.5
20260505201219 55 170 0.0 1.0 0.00 0.00 0.00 92 1011.5
20260505200716 55 170 0.0 1.0 0.00 0.00 0.00 92 1011.5
20260505200206 55 170 0.0 1.0 0.00 0.00 0.00 92 1011.5
20260505195703 55 170 0.0 1.0 0.00 0.00 0.00 92 1011.5